Location: St. Louis
(38.6270°N, 90.1994°W)
Time: 12:09:56
(UTC-06:00)

Transit 4A - Visible Passes

Search period start: 06 December 2021 00:00
Search period end: 16 December 2021 00:00
Orbit: 866 x 978 km, 66.8° (Epoch: 05 December)

Date Brightness Start Highest point End Pass type
(mag) Time Alt. Az. Time Alt. Az. Time Alt. Az.
06 Dec 10.6 02:52:17 12° ESE 02:52:17 12° ESE 02:52:47 10° ESE visible
06 Dec 8.7 04:35:53 40° SSW 04:35:53 40° SSW 04:40:10 10° S visible
06 Dec 8.2 17:47:23 10° S 17:52:50 43° ESE 17:56:54 18° NE visible
06 Dec 9.3 19:34:13 10° WSW 19:39:20 30° NW 19:40:26 28° NNW visible
07 Dec 10.6 03:02:27 12° ESE 03:02:27 12° ESE 03:02:50 10° ESE visible
07 Dec 9.3 04:46:02 24° SSW 04:46:02 24° SSW 04:48:49 10° S visible
07 Dec 7.8 17:56:14 10° SSW 18:02:01 67° ESE 18:06:36 17° NE visible
07 Dec 9.8 19:44:29 10° W 19:48:55 21° NW 19:50:09 20° NNW visible
08 Dec 9.9 04:56:11 13° SSW 04:56:11 13° SSW 04:57:04 10° SSW visible
08 Dec 7.9 18:05:25 10° SSW 18:11:16 82° WNW 18:16:14 16° NNE visible
08 Dec 10.1 19:55:12 10° WNW 19:58:37 15° NW 19:59:47 15° NNW visible
09 Dec 8.4 18:14:52 10° SW 18:20:37 55° WNW 18:25:48 14° NNE visible
09 Dec 10.4 20:06:47 10° NW 20:08:24 11° NW 20:09:20 11° NNW visible
10 Dec 9.0 18:24:37 10° WSW 18:30:03 38° NW 18:35:17 12° NNE visible
11 Dec 9.6 18:34:39 10° WSW 18:39:34 27° NW 18:44:37 10° N visible
12 Dec 7.9 16:56:17 10° SSW 17:02:08 78° ESE 17:08:10 10° NNE visible
12 Dec 10.0 18:45:03 10° W 18:49:11 19° NW 18:53:26 10° N visible
13 Dec 8.1 17:05:34 10° SW 17:11:25 71° WNW 17:17:28 10° NNE visible
13 Dec 10.2 18:55:58 10° WNW 18:58:56 14° NW 19:01:56 10° N visible
14 Dec 8.7 17:15:08 10° SW 17:20:47 48° NW 17:26:39 10° NNE visible
15 Dec 9.3 17:24:58 10° WSW 17:30:15 33° NW 17:35:42 10° NNE visible
